| time (UTC) | temp F | wind direction | speed MPH | gust MPH | rain 1hr in | rain 24hr in | rain mn in | humidity % | barometer mb |
| 20260506231539 | 79 | 128 | 4.0 | 8.0 | 0.00 | 0.00 | 0.00 | 89 | 1009.0 |
| 20260506230038 | 79 | 116 | 3.0 | 6.0 | 0.00 | 0.00 | 0.00 | 89 | 1008.8 |
| 20260506224538 | 79 | 117 | 3.0 | 7.0 | 0.00 | 0.00 | 0.00 | 89 | 1008.6 |
| 20260506223038 | 79 | 109 | 2.0 | 6.0 | 0.00 | 0.00 | 0.00 | 88 | 1008.6 |
| 20260506221550 | 79 | 123 | 1.0 | 8.0 | 0.00 | 0.00 | 0.00 | 88 | 1008.5 |
| 20260506220043 | 79 | 153 | 6.0 | 9.0 | 0.00 | 0.00 | 0.00 | 88 | 1008.5 |
| 20260506214536 | 79 | 108 | 5.0 | 10.0 | 0.00 | 0.00 | 0.00 | 88 | 1008.4 |
| 20260506213043 | 79 | 127 | 8.0 | 14.0 | 0.00 | 0.00 | 0.00 | 87 | 1008.5 |
| 20260506211543 | 79 | 137 | 7.0 | 13.0 | 0.00 | 0.00 | 0.00 | 87 | 1008.6 |
| 20260506210043 | 79 | 132 | 10.0 | 14.0 | 0.00 | 0.00 | 0.00 | 88 | 1008.8 |
| 20260506204535 | 79 | 137 | 7.0 | 12.0 | 0.00 | 0.00 | 0.00 | 88 | 1009.1 |
| 20260506203034 | 79 | 95 | 8.0 | 12.0 | 0.00 | 0.00 | 0.00 | 88 | 1009.3 |
| 20260506201537 | 79 | 127 | 5.0 | 13.0 | 0.00 | 0.00 | 0.00 | 88 | 1009.4 |
| 20260506200033 | 79 | 132 | 6.0 | 13.0 | 0.00 | 0.00 | 0.00 | 87 | 1009.5 |
| 20260506194532 | 79 | 82 | 6.0 | 10.0 | 0.00 | 0.00 | 0.00 | 87 | 1009.7 |
| 20260506193044 | 79 | 132 | 4.0 | 10.0 | 0.00 | 0.00 | 0.00 | 88 | 1009.8 |
| 20260506191531 | 79 | 104 | 7.0 | 10.0 | 0.00 | 0.00 | 0.00 | 88 | 1009.9 |
| 20260506190030 | 80 | 130 | 7.0 | 11.0 | 0.00 | 0.00 | 0.00 | 87 | 1010.0 |
| 20260506184530 | 79 | 132 | 7.0 | 10.0 | 0.00 | 0.00 | 0.00 | 89 | 1010.1 |
| 20260506183025 | 78 | 144 | 6.0 | 12.0 | 0.00 | 0.00 | 0.00 | 90 | 1009.9 |
| 20260506181536 | 78 | 121 | 6.0 | 12.0 | 0.00 | 0.00 | 0.00 | 90 | 1010.3 |
| 20260506180025 | 78 | 152 | 8.0 | 12.0 | 0.00 | 0.00 | 0.00 | 90 | 1010.6 |
| 20260506174523 | 78 | 149 | 9.0 | 15.0 | 0.00 | 0.00 | 0.00 | 89 | 1010.9 |
| 20260506173040 | 78 | 154 | 10.0 | 15.0 | 0.00 | 0.00 | 0.00 | 89 | 1010.8 |
| 20260506171521 | 78 | 139 | 6.0 | 11.0 | 0.00 | 0.00 | 0.00 | 90 | 1010.7 |
| 20260506170021 | 78 | 117 | 6.0 | 11.0 | 0.00 | 0.00 | 0.00 | 90 | 1010.7 |
| 20260506164519 | 78 | 148 | 8.0 | 14.0 | 0.00 | 0.00 | 0.00 | 89 | 1010.6 |
| 20260506163024 | 78 | 150 | 8.0 | 14.0 | 0.00 | 0.00 | 0.00 | 89 | 1010.5 |
| 20260506161517 | 78 | 146 | 6.0 | 11.0 | 0.00 | 0.00 | 0.00 | 89 | 1010.4 |
| 20260506160016 | 78 | 171 | 7.0 | 13.0 | 0.00 | 0.00 | 0.00 | 90 | 1010.0 |
| 20260506154513 | 78 | 128 | 9.0 | 16.0 | 0.00 | 0.00 | 0.00 | 90 | 1009.9 |
| 20260506153017 | 77 | 165 | 9.0 | 17.0 | 0.00 | 0.00 | 0.00 | 90 | 1009.8 |
| 20260506151511 | 77 | 150 | 9.0 | 13.0 | 0.00 | 0.00 | 0.00 | 90 | 1009.7 |
| 20260506150015 | 77 | 157 | 9.0 | 14.0 | 0.00 | 0.00 | 0.00 | 90 | 1009.5 |
| 20260506144509 | 77 | 148 | 11.0 | 15.0 | 0.00 | 0.00 | 0.00 | 90 | 1009.3 |
| 20260506143014 | 77 | 146 | 9.0 | 16.0 | 0.00 | 0.00 | 0.00 | 90 | 1009.5 |
| 20260506141508 | 77 | 143 | 8.0 | 16.0 | 0.00 | 0.00 | 0.00 | 90 | 1009.6 |
| 20260506140013 | 77 | 132 | 8.0 | 14.0 | 0.00 | 0.00 | 0.00 | 90 | 1009.4 |
| 20260506134505 | 77 | 158 | 8.0 | 14.0 | 0.00 | 0.00 | 0.00 | 90 | 1009.3 |
| 20260506133005 | 77 | 140 | 9.0 | 15.0 | 0.00 | 0.00 | 0.00 | 90 | 1009.3 |
| 20260506131508 | 77 | 134 | 7.0 | 12.0 | 0.00 | 0.00 | 0.00 | 90 | 1009.3 |
| 20260506130005 | 77 | 140 | 6.0 | 11.0 | 0.00 | 0.00 | 0.00 | 90 | 1009.2 |
| 20260506124504 | 77 | 138 | 3.0 | 9.0 | 0.00 | 0.00 | 0.00 | 90 | 1009.3 |
| 20260506123003 | 77 | 144 | 4.0 | 9.0 | 0.00 | 0.00 | 0.00 | 90 | 1009.1 |
| 20260506121502 | 77 | 144 | 4.0 | 10.0 | 0.00 | 0.00 | 0.00 | 90 | 1009.1 |
| 20260506120002 | 77 | 137 | 5.0 | 9.0 | 0.00 | 0.00 | 0.00 | 90 | 1009.0 |
| 20260506114502 | 77 | 144 | 5.0 | 9.0 | 0.00 | 0.00 | 0.00 | 90 | 1008.9 |
| 20260506113001 | 77 | 133 | 5.0 | 10.0 | 0.00 | 0.00 | 0.00 | 90 | 1008.8 |
| 20260506111501 | 77 | 129 | 4.0 | 10.0 | 0.00 | 0.00 | 0.00 | 90 | 1008.8 |
| 20260506110001 | 77 | 142 | 6.0 | 12.0 | 0.00 | 0.00 | 0.00 | 90 | 1008.8 |
| 20260506104636 | 77 | 166 | 6.0 | 10.0 | 0.00 | 0.00 | 0.00 | 90 | 1008.8 |
| 20260506103108 | 77 | 157 | 7.0 | 11.0 | 0.00 | 0.00 | 0.00 | 90 | 1008.8 |
| 20260506101559 | 77 | 159 | 7.0 | 11.0 | 0.00 | 0.00 | 0.00 | 90 | 1008.8 |
| 20260506100058 | 77 | 171 | 8.0 | 13.0 | 0.00 | 0.00 | 0.00 | 91 | 1008.7 |
| 20260506094558 | 76 | 139 | 8.0 | 15.0 | 0.00 | 0.00 | 0.00 | 91 | 1008.5 |
| 20260506093057 | 77 | 133 | 7.0 | 14.0 | 0.00 | 0.00 | 0.00 | 91 | 1008.2 |
| 20260506091559 | 77 | 168 | 9.0 | 12.0 | 0.00 | 0.00 | 0.00 | 90 | 1008.2 |
| 20260506090057 | 77 | 132 | 8.0 | 14.0 | 0.00 | 0.00 | 0.00 | 90 | 1008.1 |
| 20260506084555 | 76 | 144 | 8.0 | 15.0 | 0.00 | 0.00 | 0.00 | 90 | 1008.0 |
| 20260506083055 | 76 | 161 | 9.0 | 13.0 | 0.00 | 0.00 | 0.00 | 90 | 1008.2 |
| 20260506081559 | 76 | 152 | 7.0 | 12.0 | 0.00 | 0.00 | 0.00 | 90 | 1008.3 |
| 20260506080106 | 76 | 165 | 10.0 | 16.0 | 0.00 | 0.00 | 0.00 | 90 | 1008.3 |
| 20260506073050 | 76 | 156 | 9.0 | 15.0 | 0.00 | 0.00 | 0.00 | 90 | 1009.0 |
| 20260506071547 | 77 | 144 | 8.0 | 14.0 | 0.00 | 0.00 | 0.00 | 90 | 1009.2 |
| 20260506061545 | 77 | 164 | 10.0 | 20.0 | 0.00 | 0.00 | 0.00 | 90 | 1009.3 |
| 20260506044538 | 77 | 159 | 15.0 | 21.0 | 0.00 | 0.00 | 0.00 | 89 | 1009.3 |
| 20260506043047 | 77 | 155 | 13.0 | 19.0 | 0.00 | 0.00 | 0.00 | 89 | 1009.4 |
| 20260506041538 | 77 | 159 | 15.0 | 21.0 | 0.00 | 0.00 | 0.00 | 89 | 1009.4 |
| 20260506040045 | 77 | 169 | 15.0 | 23.0 | 0.00 | 0.00 | 0.00 | 89 | 1009.5 |
| 20260506034537 | 77 | 166 | 14.0 | 20.0 | 0.00 | 0.00 | 0.00 | 89 | 1009.2 |
| 20260506033035 | 77 | 153 | 15.0 | 20.0 | 0.00 | 0.00 | 0.00 | 89 | 1009.2 |
| 20260506031536 | 77 | 162 | 15.0 | 22.0 | 0.00 | 0.00 | 0.00 | 89 | 1009.0 |
| 20260506030034 | 77 | 168 | 15.0 | 19.0 | 0.00 | 0.00 | 0.00 | 89 | 1008.7 |
| 20260506024542 | 77 | 148 | 11.0 | 22.0 | 0.00 | 0.00 | 0.00 | 88 | 1008.5 |
| 20260506023033 | 77 | 168 | 15.0 | 21.0 | 0.00 | 0.00 | 0.00 | 89 | 1008.4 |
| 20260506021549 | 77 | 172 | 15.0 | 22.0 | 0.00 | 0.00 | 0.00 | 89 | 1008.2 |
| 20260506020032 | 77 | 161 | 14.0 | 21.0 | 0.00 | 0.00 | 0.00 | 89 | 1008.1 |
| 20260506014532 | 77 | 164 | 14.0 | 18.0 | 0.00 | 0.00 | 0.00 | 89 | 1007.9 |
| 20260506013031 | 77 | 142 | 14.0 | 22.0 | 0.00 | 0.00 | 0.00 | 88 | 1007.7 |
| 20260506011532 | 77 | 140 | 14.0 | 20.0 | 0.00 | 0.00 | 0.00 | 88 | 1007.6 |
| 20260506010043 | 77 | 139 | 13.0 | 20.0 | 0.00 | 0.00 | 0.00 | 88 | 1007.5 |
| 20260506004530 | 77 | 168 | 14.0 | 21.0 | 0.00 | 0.00 | 0.00 | 88 | 1007.3 |
| 20260506003030 | 78 | 158 | 12.0 | 18.0 | 0.00 | 0.00 | 0.00 | 88 | 1007.2 |
| 20260506001530 | 78 | 153 | 11.0 | 21.0 | 0.00 | 0.00 | 0.00 | 88 | 1007.3 |
| 20260506000031 | 78 | 149 | 14.0 | 19.0 | 0.00 | 0.00 | 0.00 | 86 | 1007.3 |
| 20260505234539 | 78 | 157 | 16.0 | 21.0 | 0.00 | 0.00 | 0.00 | 86 | 1007.3 |
| 20260505233028 | 78 | 133 | 13.0 | 22.0 | 0.00 | 0.00 | 0.00 | 87 | 1007.5 |